Corinth, MS

11:23 PM CST on December 13, 2017 (GMT -0600)
Turner

Weather History for KCRX - July, 2013

Change the Weather History Date:

Saturday, July 27, 2013

  Actual Average Record
Temperature  
Mean Temperature 76 °F -  
Max Temperature 84 °F 91 °F 108 °F (1952)
Min Temperature 68 °F 69 °F 58 °F (1962)
Cooling Degree Days 11    
Growing Degree Days 26 (Base 50)    
Moisture  
Dew Point 66 °F    
Average Humidity 76    
Maximum Humidity 94    
Minimum Humidity 51    
Precipitation  
Precipitation 0.00 in - - ()
Sea Level Pressure  
Sea Level Pressure 29.96 in    
Wind  
Wind Speed 2 mph (WNW)    
Max Wind Speed 8 mph    
Max Gust Speed -    
Visibility 9 miles    
Events Rain    
Averages and records for this station are not official NWS values.
T = Trace of Precipitation, MM = Missing Value Source: NWS Daily Summary

Daily Weather History Graph

Daily Weather History Graph

Search for Another Location

Airport or City:

Trip Planner

Search our weather history database for the weather conditions in past years. The results will help you decide how hot, cold, wet, or windy it might be!

Date:

Astronomy

Jul. 27, 2013 Rise Set
Actual Time 6:00 AM CDT 8:00 PM CDT
Civil Twilight 5:32 AM CDT 8:28 PM CDT
Nautical Twilight 4:58 AM CDT 9:03 PM CDT
Astronomical Twilight 4:21 AM CDT 9:39 PM CDT
Moon 11:05 PM CDT (7/27) 11:24 AM CDT (7/27)
Length of Visible Light 14h 56m
Length of Day
14h 00m
Waning Gibbous, 70% of the Moon is Illuminated
Jul 27
Waning Gibbous
Jul 29
Last Quarter
Aug 6
New
Aug 14
First Quarter
Aug 20
Full

Hourly Weather History & Observations

Time (CDT) Temp. Heat Index Dew Point Humidity Pressure Visibility Wind Dir Wind Speed Gust Speed Precip Events Conditions
12:10 AM 71.6 °F - 66.2 °F 83% 29.99 in 10.0 mi NW 3.5 mph - N/A   Partly Cloudy
12:30 AM 71.6 °F - 66.2 °F 83% 29.99 in 10.0 mi Calm Calm - N/A   Mostly Cloudy
12:50 AM 71.6 °F - 66.2 °F 83% 29.99 in 10.0 mi Calm Calm - N/A   Mostly Cloudy
1:10 AM 69.8 °F - 66.2 °F 88% 29.99 in 7.0 mi Calm Calm - N/A   Overcast
1:30 AM 69.8 °F - 66.2 °F 88% 29.99 in 8.0 mi NW 3.5 mph - N/A   Overcast
1:50 AM 69.8 °F - 66.2 °F 88% 29.99 in 8.0 mi Calm Calm - N/A Rain Light Rain
2:10 AM 69.8 °F - 66.2 °F 88% 30.00 in 9.0 mi NW 3.5 mph - N/A   Overcast
2:30 AM 69.8 °F - 66.2 °F 88% 29.99 in 9.0 mi Calm Calm - N/A   Overcast
2:50 AM 68.0 °F - 66.2 °F 94% 29.97 in 8.0 mi North 3.5 mph - N/A   Mostly Cloudy
3:10 AM 69.8 °F - 66.2 °F 88% 29.97 in 10.0 mi Calm Calm - N/A   Partly Cloudy
3:30 AM 68.0 °F - 66.2 °F 94% 29.97 in 6.0 mi NW 3.5 mph - N/A   Scattered Clouds
3:50 AM 68.0 °F - 66.2 °F 94% 29.96 in 10.0 mi NNW 3.5 mph - N/A   Overcast
4:10 AM 68.0 °F - 66.2 °F 94% 29.97 in 10.0 mi Calm Calm - N/A   Overcast
4:30 AM 68.0 °F - 66.2 °F 94% 29.97 in 9.0 mi Calm Calm - N/A   Overcast
4:50 AM 68.0 °F - 66.2 °F 94% 29.97 in 8.0 mi WNW 3.5 mph - N/A   Overcast
5:10 AM 68.0 °F - 66.2 °F 94% 29.97 in 10.0 mi Calm Calm - N/A   Overcast
5:30 AM 68.0 °F - 66.2 °F 94% 29.97 in 10.0 mi Calm Calm - N/A   Mostly Cloudy
5:50 AM 68.0 °F - 66.2 °F 94% 29.97 in 10.0 mi Calm Calm - N/A   Clear
6:10 AM 68.0 °F - 66.2 °F 94% 29.97 in 5.0 mi Calm Calm - N/A   Mostly Cloudy
6:30 AM 68.0 °F - 66.2 °F 94% 29.97 in 6.0 mi WSW 3.5 mph - N/A   Overcast
6:50 AM 68.0 °F - 66.2 °F 94% 29.97 in 5.0 mi Calm Calm - N/A   Overcast
7:10 AM 69.8 °F - 66.2 °F 88% 29.98 in 7.0 mi Calm Calm - N/A   Mostly Cloudy
7:30 AM 71.6 °F - 66.2 °F 83% 29.97 in 9.0 mi Calm Calm - N/A   Partly Cloudy
7:50 AM 71.6 °F - 66.2 °F 83% 29.98 in 9.0 mi Calm Calm - N/A   Clear
8:10 AM 71.6 °F - 66.2 °F 83% 29.98 in 9.0 mi Calm Calm - N/A   Clear
8:30 AM 73.4 °F - 66.2 °F 78% 29.98 in 9.0 mi Calm Calm - N/A   Scattered Clouds
8:50 AM 73.4 °F - 66.2 °F 78% 29.98 in 10.0 mi Calm Calm - N/A   Mostly Cloudy
9:10 AM 73.4 °F - 66.2 °F 78% 29.98 in 8.0 mi Calm Calm - N/A   Mostly Cloudy
9:30 AM 75.2 °F - 66.2 °F 73% 29.98 in 10.0 mi Calm Calm - N/A   Scattered Clouds
9:50 AM 75.2 °F - 66.2 °F 73% 29.98 in 10.0 mi WNW 3.5 mph - N/A   Mostly Cloudy
10:10 AM 75.2 °F - 66.2 °F 73% 29.98 in 10.0 mi Calm Calm - N/A   Mostly Cloudy
10:30 AM 77.0 °F - 66.2 °F 69% 29.98 in 10.0 mi WSW 5.8 mph - N/A   Mostly Cloudy
10:50 AM 77.0 °F - 68.0 °F 74% 29.98 in 10.0 mi West 8.1 mph - N/A   Mostly Cloudy
11:10 AM 75.2 °F - 68.0 °F 78% 29.98 in 10.0 mi WSW 6.9 mph - N/A   Mostly Cloudy
11:30 AM 75.2 °F - 66.2 °F 73% 29.98 in 10.0 mi West 5.8 mph - N/A   Mostly Cloudy
11:50 AM 77.0 °F - 66.2 °F 69% 29.99 in 10.0 mi West 6.9 mph - N/A   Mostly Cloudy
12:10 PM 75.2 °F - 64.4 °F 69% 29.98 in 10.0 mi WSW 4.6 mph - N/A   Overcast
12:30 PM 77.0 °F - 66.2 °F 69% 29.98 in 10.0 mi WSW 6.9 mph - N/A   Mostly Cloudy
12:50 PM 78.8 °F - 66.2 °F 65% 29.97 in 10.0 mi WSW 5.8 mph - N/A   Overcast
1:10 PM 80.6 °F 82.7 °F 66.2 °F 61% 29.97 in 10.0 mi West 6.9 mph - N/A   Mostly Cloudy
1:30 PM 80.6 °F 82.3 °F 64.4 °F 58% 29.96 in 10.0 mi WNW 4.6 mph - N/A   Partly Cloudy
1:50 PM 80.6 °F 82.3 °F 64.4 °F 58% 29.95 in 10.0 mi WNW 4.6 mph - N/A   Clear
2:10 PM 84.2 °F 85.6 °F 64.4 °F 51% 29.94 in 10.0 mi Calm Calm - N/A   Clear
2:30 PM 82.4 °F 83.9 °F 64.4 °F 54% 29.93 in 10.0 mi NW 3.5 mph - N/A   Partly Cloudy
2:50 PM 82.4 °F 84.6 °F 66.2 °F 58% 29.93 in 10.0 mi WNW 4.6 mph - N/A   Scattered Clouds
3:10 PM 84.2 °F 86.6 °F 66.2 °F 55% 29.92 in 10.0 mi NW 4.6 mph - N/A   Clear
3:30 PM 82.4 °F 83.9 °F 64.4 °F 54% 29.92 in 10.0 mi NW 6.9 mph - N/A   Clear
3:50 PM 84.2 °F 85.6 °F 64.4 °F 51% 29.91 in 10.0 mi NW 3.5 mph - N/A   Clear
4:10 PM 84.2 °F 85.6 °F 64.4 °F 51% 29.91 in 10.0 mi ENE 4.6 mph - N/A   Clear
4:30 PM 84.2 °F 85.6 °F 64.4 °F 51% 29.91 in 10.0 mi NW 4.6 mph - N/A   Clear
4:50 PM 82.4 °F 83.9 °F 64.4 °F 54% 29.91 in 10.0 mi Calm Calm - N/A   Clear
5:10 PM 82.4 °F 83.9 °F 64.4 °F 54% 29.91 in 10.0 mi NNW 3.5 mph - N/A   Partly Cloudy
5:30 PM 82.4 °F 83.9 °F 64.4 °F 54% 29.90 in 10.0 mi Calm Calm - N/A   Mostly Cloudy
5:50 PM 82.4 °F 84.6 °F 66.2 °F 58% 29.90 in 10.0 mi Calm Calm - N/A   Mostly Cloudy
6:10 PM 82.4 °F 83.9 °F 64.4 °F 54% 29.90 in 10.0 mi Calm Calm - N/A   Partly Cloudy
6:30 PM 82.4 °F 85.4 °F 68.0 °F 62% 29.91 in 10.0 mi Calm Calm - N/A   Clear
6:50 PM 82.4 °F 85.4 °F 68.0 °F 62% 29.91 in 10.0 mi WSW 4.6 mph - N/A   Scattered Clouds
7:10 PM 80.6 °F 83.2 °F 68.0 °F 65% 29.91 in 10.0 mi SW 4.6 mph - N/A   Mostly Cloudy
7:30 PM 78.8 °F - 68.0 °F 69% 29.91 in 10.0 mi SSW 5.8 mph - N/A   Clear
7:50 PM 77.0 °F - 68.0 °F 74% 29.91 in 10.0 mi SW 5.8 mph - N/A   Clear
8:10 PM 75.2 °F - 68.0 °F 78% 29.92 in 10.0 mi Calm Calm - N/A   Partly Cloudy
8:30 PM 73.4 °F - 68.0 °F 83% 29.92 in 9.0 mi WSW 3.5 mph - N/A   Scattered Clouds
8:50 PM 73.4 °F - 68.0 °F 83% 29.93 in 10.0 mi Calm Calm - N/A   Partly Cloudy
9:10 PM 71.6 °F - 68.0 °F 88% 29.94 in 10.0 mi WNW 3.5 mph - N/A   Scattered Clouds
9:30 PM 71.6 °F - 68.0 °F 88% 29.95 in 10.0 mi Calm Calm - N/A   Overcast
9:50 PM 73.4 °F - 68.0 °F 83% 29.95 in 10.0 mi Calm Calm - N/A   Overcast
10:10 PM 73.4 °F - 68.0 °F 83% 29.95 in 10.0 mi Calm Calm - N/A   Mostly Cloudy
10:30 PM 73.4 °F - 68.0 °F 83% 29.95 in 10.0 mi Calm Calm - N/A   Mostly Cloudy
10:50 PM 71.6 °F - 68.0 °F 88% 29.95 in 10.0 mi Calm Calm - N/A   Mostly Cloudy
11:10 PM 71.6 °F - 68.0 °F 88% 29.94 in 10.0 mi Calm Calm - N/A   Scattered Clouds
11:30 PM 71.6 °F - 68.0 °F 88% 29.94 in 10.0 mi Calm Calm - N/A   Clear
11:50 PM 69.8 °F - 68.0 °F 94% 29.95 in 2.5 mi Calm Calm - N/A   Clear